Regional Weather Roundup
Issued by NWS

Home | Current Version | Previous Version | Text Only | Print | Product List | Glossary Off
Versions: 1 2 3 4 5 6 7 8 9 10 11 12 13 14 15 16 17 18 19 20 21 22 23 24 25 26 27 28 29 30 31 32 33 34 35 36 37 38 39 40 41 42 43 44 45 46 47 48 49 50

000
ASUS45 KBOI 251110
RWRID
WEATHER ROUNDUP FOR IDAHO
NATIONAL WEATHER SERVICE BOISE ID
500 AM MDT FRI JUL 25 2014

NOTE: "FAIR" INDICATES FEW OR NO CLOUDS BELOW 12000 FEET
WITH NO SIGNIFICANT WEATHER AND/OR OBSTRUCTIONS TO VISIBILITY

IDZ012-014-251200-
SOUTHWEST IDAHO


CITY           SKY/WX    TMP DP  RH WIND       PRES   REMARKS
BOISE          CLEAR     54  39  57 SW5       30.06R
CALDWELL       CLEAR     57  36  44 W8        30.08S
MOUNTAIN HOME  CLEAR     52  35  51 W2        30.06R
$$

IDZ016-017-251200-
SOUTHCENTRAL IDAHO


CITY           SKY/WX    TMP DP  RH WIND       PRES   REMARKS
BURLEY         PTCLDY    48  36  63 S5        30.10R
JEROME         CLEAR     53  33  46 S8        30.10R
TWIN FALLS     CLEAR     57  26  30 S15       30.11R
$$

IDZ019>023-251200-
SOUTHEAST IDAHO


CITY           SKY/WX    TMP DP  RH WIND       PRES   REMARKS
IDAHO FALLS    CLEAR     48  33  56 SW8       30.12S
POCATELLO      CLEAR     56  24  29 SW10      30.13R
REXBURG        CLEAR     50  27  40 SW3       30.12R
$$

IDZ006-010-011-018-031-032-251200-
CENTRAL IDAHO MOUNTAINS


CITY           SKY/WX    TMP DP  RH WIND       PRES   REMARKS
MCCALL         CLEAR     41  34  76 CALM      30.13F
HAILEY         CLEAR     45  28  53 NW7       30.16R
STANLEY          N/A     29  22  75 S3        30.22S
SALMON         PTCLDY    48  34  57 CALM      30.10S
CHALLIS        CLEAR     47  23  38 CALM      30.14R
$$

IDZ002-004-006-007-026-251200-
NORTHERN IDAHO


CITY           SKY/WX    TMP DP  RH WIND       PRES   REMARKS
LEWISTON       CLEAR     57  44  62 S3        30.09S
LOWELL           N/A     50  45  83 N5        30.15S
COEUR D`ALENE  MOCLDY    55  46  71 SW6       30.05S
MULLAN PASS    CLOUDY    44  39  82 VRB5      30.13F
$$


USA.gov is the U.S. government's official web portal to all federal, state and local government web resources and services.